Location: Unspecified
(0.0000°N, 0.0000°E)
Time: 20:03:19
(UTC+00:00)

Envisat - Pass Details

Date: 17 January 2020
Orbit: 764 x 766 km, 98.1° (Epoch: 24 February)

Event Time Altitude Azimuth Distance (km) Brightness Sun altitude
Rises 18:51:52 0° 185° (S) 3,230 6.6 -9.8°
Reaches altitude 10° 18:54:21 10° 195° (SSW) 2,302 6.0 -10.4°
Maximum altitude 18:58:53 33° 258° (WSW) 1,265 5.0 -11.4°
Drops below altitude 10° 19:03:24 10° 321° (NW) 2,294 5.7 -12.5°
Sets 19:05:53 0° 331° (NNW) 3,218 6.3 -13.0°
